Location: Unspecified
(43.4354°N, 0.0000°E)
Time: 11:36:45
(UTC+00:00)

Altair - Visible Passes

Search period start: 20 June 2019 00:00
Search period end: 30 June 2019 00:00
Orbit: 1501 x 1683 km, 47.2° (Epoch: 19 June)

Date Brightness Start Highest point End Pass type
(mag) Time Alt. Az. Time Alt. Az. Time Alt. Az.
20 Jun 7.6 01:57:04 10° WNW 02:07:04 74° SSW 02:17:11 10° SE visible
20 Jun 7.6 21:21:27 10° WSW 21:31:08 85° NNW 21:41:12 10° ENE visible
20 Jun 7.8 23:26:47 10° W 23:36:38 72° N 23:46:47 10° E visible
21 Jun 7.5 01:31:52 10° WNW 01:41:51 77° SSW 01:52:01 10° SE visible
21 Jun 8.2 03:37:22 10° WNW 03:45:44 31° SW 03:54:09 10° S visible
21 Jun 7.6 20:56:17 10° WSW 21:05:55 87° NNW 21:15:58 10° ENE visible
21 Jun 7.8 23:01:34 10° W 23:11:22 72° N 23:21:30 10° E visible
22 Jun 7.5 01:06:40 10° WNW 01:16:40 81° SSW 01:26:50 10° ESE visible
22 Jun 8.1 03:12:02 10° WNW 03:20:39 34° SW 03:29:19 10° SSE visible
22 Jun 7.6 20:31:08 10° WSW 20:40:42 90° SSE 20:50:43 10° ENE visible
22 Jun 7.8 22:36:21 10° W 22:46:07 71° N 22:56:13 10° E visible
23 Jun 7.5 00:41:29 10° WNW 00:51:27 84° SSW 01:01:39 10° ESE visible
23 Jun 8.0 02:46:44 10° WNW 02:55:33 36° SW 03:04:27 10° SSE visible
23 Jun 7.6 20:05:59 10° WSW 20:15:31 87° SSE 20:25:28 10° ENE visible
23 Jun 7.8 22:11:08 10° W 22:20:51 71° N 22:30:56 10° E visible
24 Jun 7.5 00:16:18 10° WNW 00:26:15 87° SSW 00:36:26 10° ESE visible
24 Jun 7.9 02:21:27 10° WNW 02:30:26 39° SW 02:39:33 10° SSE visible
24 Jun 7.8 21:45:55 10° W 21:55:35 71° N 22:05:38 10° E visible
24 Jun 7.5 23:51:07 10° WNW 00:01:02 90° E 00:11:13 10° ESE visible
25 Jun 7.9 01:56:11 10° WNW 02:05:20 42° SW 02:14:37 10° SSE visible
25 Jun 7.9 21:20:42 10° W 21:30:20 72° N 21:40:21 10° E visible
25 Jun 7.6 23:25:55 10° WNW 23:35:48 87° NNE 23:45:59 10° ESE visible
26 Jun 7.8 01:30:56 10° WNW 01:40:12 46° SW 01:49:38 10° SSE visible
26 Jun 8.9 03:40:04 10° WSW 03:43:07 12° WSW 03:46:10 10° SW visible
26 Jun 7.9 20:55:29 10° W 21:05:05 72° N 21:15:04 10° E visible
26 Jun 7.6 23:00:44 10° WNW 23:10:34 85° NNE 23:20:44 10° ESE visible
27 Jun 7.7 01:05:42 10° WNW 01:15:05 49° SW 01:24:38 10° SSE visible
27 Jun 8.8 03:13:49 10° W 03:18:06 13° WSW 03:22:23 10° SSW visible
27 Jun 7.9 20:30:17 10° W 20:39:50 73° N 20:49:48 10° ENE visible
27 Jun 7.6 22:35:32 10° WNW 22:45:20 82° NNE 22:55:29 10° ESE visible
28 Jun 7.7 00:40:29 10° WNW 00:49:56 52° SW 00:56:46 21° SSE visible
28 Jun 8.7 02:47:55 10° W 02:53:04 15° WSW 02:54:30 15° SW visible
28 Jun 7.9 20:05:04 10° W 20:14:35 74° N 20:24:32 10° ENE visible
28 Jun 7.7 22:10:21 10° WNW 22:20:07 80° NNE 22:30:13 10° ESE visible
29 Jun 7.6 00:15:16 10° WNW 00:24:48 56° SW 00:30:26 28° SSE visible
29 Jun 8.7 02:22:12 10° W 02:28:02 17° SW 02:28:17 17° SW visible
29 Jun 7.7 21:45:09 10° WNW 21:54:52 78° NNE 22:04:56 10° E visible
